Miscellaneous Local Product
Issued by NWS North Platte, NE

Home | Current Version | Previous Version | Text Only | Print | Product List | Glossary On
Versions: 1 2 3 4 5 6 7 8 9 10 11 12 13 14 15 16 17 18 19 20 21 22 23 24 25 26 27 28 29 30 31 32 33 34 35 36 37 38 39 40 41 42 43 44 45 46 47 48 49 50
000
AXUS43 KLBF 261510
MISLBF


WESTERN AND NORTH CENTRAL NEBRASKA HOURLY WEATHER ROUNDUP
NATIONAL WEATHER SERVICE NORTH PLATTE NE
900 AM CST MON JAN 26 2015

***STATIONS NOT REPORTING VARIABLES SUCH AS SKY/WEATHER OR
PRESSURE ARE PROVIDED BY THE NEBRASKA DEPARTMENT OF
ROADS...RAWS...AND APRS NETWORKS...AND ARE NOT UNDER
NATIONAL WEATHER SERVICE QUALITY CONTROL***

...OBSERVATIONS IN AND NEAR THE EASTERN PANHANDLE OF NEBRASKA...

CITY           SKY/WX    TMP DP  RH WIND       PRES   REMARKS
PINE RIDGE     CLEAR     39  29  67 W7        30.08R WCI  34
CHADRON        CLEAR     45  30  55 NW17      30.10R
ALLIANCE       CLEAR     37  30  75 W12       30.12R WCI  29
SIDNEY         CLEAR     42  29  59 W10       30.17R
$$

...OBSERVATIONS IN NORTH CENTRAL NEBRASKA...

CITY           SKY/WX    TMP DP  RH WIND       PRES   REMARKS
VALENTINE      CLEAR     40  32  73 W10       30.00R WCI  33
THEDFORD       CLEAR     42  32  69 W9        30.03R
AINSWORTH      CLEAR     41  32  70 NW6       29.98R
O`NEILL        CLEAR     43  35  73 NW13      29.94R
ORD            CLEAR     45  32  60 NW14      29.94R
BROKEN BOW     CLEAR     47  32  56 NW18      29.98R
$$

...OBSERVATIONS IN SOUTHWEST NEBRASKA AND FAR NORTHEAST COLORADO...

CITY           SKY/WX    TMP DP  RH WIND       PRES   REMARKS
WRAY           FAIR      44  31  60 W13       30.16R
HOLYOKE        FAIR      43  32  65 W13       30.15R
IMPERIAL       CLEAR     43  29  57 W14       30.11R
OGALLALA       CLEAR     47  32  56 NW13      30.11R
NORTH PLATTE   CLEAR     35  31  85 W9        30.08R WCI  28
MCCOOK         CLEAR     43  31  62 NW17      30.08R
LEXINGTON      CLEAR     39  33  77 W16       30.04R WCI  30
$$

...NORTH PLATTE AREA...

CITY           SKY/WX    TMP DP  RH WIND       PRES   REMARKS
AIRPORT        CLEAR     35  31  85 W9        30.08R WCI  28
$$

...SOME WEATHER OBSERVATIONS FROM AROUND THE REGION...

CITY           SKY/WX    TMP DP  RH WIND       PRES   REMARKS
DENVER         PTCLDY    42  25  50 SW13      30.25R
LARAMIE        PTCLDY    25  19  78 E8        30.34R WCI  16
CHEYENNE       CLEAR     51  21  30 W16G24    30.24R
SCOTTSBLUFF    CLEAR     38  30  73 N5        30.17R WCI  34
RAPID CITY     CLEAR     47  28  47 SW3       30.04R
PIERRE         PTCLDY    40  33  76 W12       29.94R WCI  33
WINNER         FAIR      42  32  67 W9        29.95S
SIOUX FALLS    MOSUNNY   37  33  85 NW16      29.83R WCI  28
OMAHA          MOSUNNY   32  29  88 S3        29.88S
GRAND ISLAND   SUNNY     39  32  76 W10       29.96R WCI  32
KANSAS CITY    MOSUNNY   33  30  88 SW13      29.96F WCI  24
WICHITA        MOSUNNY   38  30  73 SW7       30.04F WCI  33
HAYS           SUNNY     45  28  53 NW15      30.05R
LIBERAL        MOSUNNY   43  30  61 W13       30.18R
GOODLAND       CLEAR     44  30  57 NW15      30.15R
$$



USA.gov is the U.S. government's official web portal to all federal, state and local government web resources and services.